                ,  1.160,  1.308,  1.456,  1.604,  1.751,  1.899,  2.047,  2.194,  2.342,  2.490,  2.638,  2.785,  2.933,  3.081,  3.229,  3.376,  3.524,  3.672,  3.819,  3.967,  4.115,  4.263,  4.410,  4.558,  4.706,  4.853,  5.001,  5.149,  5.297,  5.444
2006/06/20 00:00,  999.0,  999.0,  999.0,  999.0,  999.0,   -3.2,   -4.3,   -5.6,   -4.2,   -5.3,  999.0,  999.0,  999.0,  999.0,  999.0,  999.0,  999.0,  999.0,  999.0,  999.0,  999.0,  999.0,  999.0,  999.0,   -0.2,    1.3,  999.0,  999.0,  999.0,  999.0
2006/06/20 00:10,   -0.3,   -2.0,  999.0,   -2.1,   -2.6,   -4.0,   -4.2,   -4.3,   -4.2,  999.0,   -4.4,  999.0,  999.0,  999.0,  999.0,  999.0,  999.0,  999.0,  999.0,  999.0,  999.0,  999.0,  999.0,  999.0,    1.9,    2.7,    3.6,    3.2,    3.3,    3.1
2006/06/20 00:20,   -0.4,   -1.2,   -2.2,   -4.3,   -3.0,   -4.4,   -4.9,   -4.6,  999.0,   -4.3,   -4.5,  999.0,   -2.8,   -2.3,   -2.2,   -1.9,   -2.1,   -2.2,   -2.2,   -2.5,   -2.1,  999.0,   -0.9,   -0.3,    1.4,    1.4,    0.1,    0.5,   -0.1,    0.6
2006/06/20 00:30,   -0.6,   -1.5,   -2.3,   -2.4,   -3.5,   -3.5,   -3.9,   -3.1,   -4.4,   -4.8,   -5.0,   -4.7,   -3.9,   -3.0,   -2.2,   -1.9,   -2.8,   -2.0,   -1.8,   -1.2,   -0.4,    0.3,    0.7,   -0.4,  999.0,  999.0,  999.0,  999.0,  999.0,  999.0
2006/06/20 00:40,   -0.5,   -0.6,   -2.1,   -3.2,   -3.6,   -3.5,   -4.4,   -4.8,   -5.1,   -5.4,   -5.2,   -4.9,   -3.5,   -1.9,   -1.6,   -2.8,   -2.9,   -1.6,   -1.7,   -0.6,   -0.4,    2.2,    2.1,    2.4,  999.0,    0.2,   -0.2,    0.0,    0.0,   -0.5
2006/06/20 00:50,   -0.7,   -0.5,   -1.5,   -2.5,   -3.4,   -4.6,   -4.0,   -4.0,   -4.9,   -4.3,   -3.0,   -3.1,   -3.0,   -3.7,   -3.2,   -2.5,   -2.6,   -1.0,   -0.6,   -0.2,    0.2,    0.9,    1.7,    0.7,   -0.2,   -1.2,   -1.0,   -1.5,   -1.4,   -1.1
2006/06/20 01:00,   -0.2,   -0.7,   -1.9,   -2.8,   -3.6,   -4.1,   -4.3,   -5.0,   -4.1,   -4.4,   -4.1,   -4.0,   -3.5,   -4.0,   -4.3,   -4.5,   -3.4,   -2.3,   -1.6,   -2.8,   -1.3,   -1.0,   -0.8,   -0.6,   -0.2,    0.4,    0.2,   -0.2,    0.4,    2.0
2006/06/20 01:10,   -0.7,   -0.4,   -1.3,   -3.5,   -3.9,   -5.6,   -4.3,   -5.5,   -5.6,   -5.8,   -6.4,   -5.0,   -3.6,   -3.0,   -2.8,   -3.1,   -2.6,   -3.0,   -6.6,   -3.4,    1.8,    0.5,    1.4,    1.1,  999.0,    1.7,    2.8,    3.4,    4.3,    4.1
2006/06/20 01:20,   -1.3,   -0.7,   -1.2,   -3.3,   -3.6,   -3.9,   -4.7,   -4.3,   -5.6,   -5.5,   -4.4,   -3.9,   -5.0,   -6.0,   -5.3,   -5.8,   -4.8,   -3.1,   -2.1,   -1.7,    0.5,    1.2,    2.4,    2.2,    1.9,    1.5,    2.6,    4.4,    5.2,    5.7
2006/06/20 01:30,  999.0,   -4.2,   -4.1,   -4.1,   -3.6,   -2.2,   -1.9,   -2.9,   -2.9,   -2.6,   -2.8,   -3.0,   -2.8,   -3.2,   -3.8,   -4.5,   -3.7,   -4.1,   -3.0,   -0.4,    0.0,    0.8,    3.4,  999.0,  999.0,  999.0,    3.7,    4.9,  999.0,  999.0
2006/06/20 01:40,   -1.9,    0.7,    1.4,    1.4,    0.8,   -0.1,   -0.9,   -1.5,   -2.1,   -2.6,   -2.1,   -3.4,   -3.3,   -3.2,   -4.7,   -5.3,   -4.6,   -4.8,   -2.0,    1.4,    1.9,   -0.3,    1.3,    3.5,    2.2,  999.0,  999.0,  999.0,  999.0,   -0.0
2006/06/20 01:50,    2.1,    0.9,    1.0,   -1.7,   -1.7,   -2.7,   -2.5,   -1.7,   -1.6,   -2.4,   -2.7,   -3.1,   -4.0,   -2.3,   -2.8,   -2.8,   -2.5,    0.3,   -2.7,   -1.1,   -0.1,    0.5,    0.0,   -0.4,    0.3,    0.9,  999.0,  999.0,  999.0,    1.4
2006/06/20 02:00,    0.2,    0.8,    0.1,   -1.2,   -2.7,   -2.8,   -3.2,   -3.1,   -3.4,   -4.2,   -5.2,   -4.6,   -4.1,   -2.2,   -1.4,   -1.6,  999.0,   -0.2,   -1.8,   -0.6,   -2.3,   -0.5,  999.0,    0.9,  999.0,  999.0,  999.0,  999.0,  999.0,   -0.6
2006/06/20 02:10,    1.2,    1.5,   -0.7,   -1.6,   -0.8,   -2.3,   -3.6,   -2.6,   -4.4,   -2.6,  999.0,   -6.3,  999.0,  999.0,   -0.0,   -2.2,  999.0,  999.0,  999.0,  999.0,  999.0,   -0.7,  999.0,  999.0,   -0.4,  999.0,  999.0,  999.0,  999.0,   -0.1
2006/06/20 02:20,    1.2,   -0.0,   -0.9,   -1.1,   -1.6,   -3.2,   -3.0,   -3.4,   -4.2,  999.0,   -3.4,   -4.4,  999.0,  999.0,  999.0,  999.0,  999.0,  999.0,  999.0,  999.0,  999.0,  999.0,  999.0,  999.0,  999.0,  999.0,  999.0,  999.0,  999.0,  999.0
2006/06/20 02:30,    1.0,   -0.6,   -1.4,   -1.8,   -1.7,   -3.5,   -3.3,   -2.5,   -3.3,   -4.1,   -3.0,  999.0,   -5.3,  999.0,  999.0,  999.0,  999.0,  999.0,   -3.4,  999.0,  999.0,  999.0,  999.0,  999.0,  999.0,  999.0,  999.0,  999.0,  999.0,  999.0
2006/06/20 02:40,   -0.5,   -0.6,   -1.4,   -2.0,   -2.4,   -2.9,   -2.2,   -1.8,   -4.0,   -4.0,   -3.5,   -5.6,   -5.8,  999.0,  999.0,  999.0,  999.0,  999.0,   -0.9,  999.0,  999.0,  999.0,  999.0,  999.0,  999.0,  999.0,  999.0,  999.0,  999.0,  999.0
2006/06/20 02:50,   -0.9,   -1.0,   -1.9,   -2.9,   -3.5,   -3.2,   -4.4,   -3.6,   -4.2,   -3.7,   -4.1,  999.0,  999.0,  999.0,  999.0,   -2.5,  999.0,  999.0,  999.0,  999.0,  999.0,  999.0,  999.0,  999.0,  999.0,  999.0,  999.0,  999.0,  999.0,  999.0
2006/06/20 03:00,   -0.8,   -2.0,   -2.3,   -2.5,   -2.1,   -2.6,   -3.5,   -2.8,   -3.3,   -4.1,   -4.2,   -5.0,  999.0,  999.0,  999.0,  999.0,  999.0,  999.0,  999.0,  999.0,  999.0,  999.0,  999.0,  999.0,  999.0,  999.0,  999.0,  999.0,  999.0,  999.0
2006/06/20 03:10,   -0.9,   -1.6,   -1.6,   -1.2,   -1.4,   -1.8,   -3.4,   -3.7,   -3.7,   -4.9,  999.0,  999.0,  999.0,  999.0,   -1.9,   -0.9,  999.0,  999.0,  999.0,  999.0,  999.0,  999.0,  999.0,    0.9,  999.0,  999.0,  999.0,  999.0,  999.0,   -0.1
2006/06/20 03:20,   -1.4,    0.2,    0.5,    0.7,   -1.3,   -2.7,   -3.6,   -4.1,   -3.9,   -4.4,  999.0,   -5.5,  999.0,  999.0,    0.8,  999.0,    0.0,  999.0,  999.0,   -0.4,   -0.7,   -0.5,  999.0,    0.4,  999.0,  999.0,  999.0,  999.0,  999.0,    0.3
2006/06/20 03:30,    0.6,    0.1,   -2.4,   -1.2,   -2.1,   -2.6,   -2.8,   -3.4,   -4.4,   -3.8,  999.0,  999.0,  999.0,  999.0,  999.0,   -1.0,  999.0,   -0.2,  999.0,  999.0,  999.0,  999.0,  999.0,    0.1,   -1.0,  999.0,  999.0,  999.0,  999.0,    0.2
2006/06/20 03:40,    3.0,    4.6,   -0.6,   -2.8,   -4.2,  999.0,   -2.2,   -3.5,   -5.1,  999.0,  999.0,  999.0,  999.0,   -5.3,  999.0,  999.0,  999.0,  999.0,  999.0,  999.0,  999.0,  999.0,  999.0,  999.0,  999.0,  999.0,  999.0,  999.0,  999.0,  999.0
2006/06/20 03:50,  999.0,  999.0,  999.0,   -2.7,   -2.6,   -2.2,  999.0,   -1.3,   -9.6,  999.0,  999.0,  999.0,  999.0,  999.0,  999.0,  999.0,  999.0,  999.0,  999.0,  999.0,  999.0,  999.0,  999.0,  999.0,  999.0,  999.0,  999.0,  999.0,  999.0,  999.0
2006/06/20 04:00,  999.0,   -3.4,  999.0,  999.0,  999.0,    1.8,  999.0,   -4.3,  999.0,   -6.3,  999.0,  999.0,  999.0,  999.0,  999.0,  999.0,  999.0,  999.0,  999.0,  999.0,  999.0,  999.0,  999.0,  999.0,  999.0,  999.0,  999.0,  999.0,  999.0,  999.0
2006/06/20 04:10,  999.0,  999.0,  999.0,  999.0,  999.0,  999.0,  999.0,  999.0,  -16.3,   -2.6,  999.0,  -15.7,  -16.3,  999.0,  999.0,  999.0,  999.0,  999.0,  999.0,  999.0,  999.0,  999.0,  999.0,  999.0,  999.0,  999.0,  999.0,  999.0,  999.0,  999.0
2006/06/20 04:20,  999.0,  999.0,  999.0,  999.0,  999.0,  999.0,  999.0,  999.0,  999.0,  999.0,  999.0,  999.0,  999.0,  999.0,  999.0,  999.0,  999.0,  999.0,  999.0,  999.0,  999.0,  999.0,  999.0,  999.0,  999.0,  999.0,  999.0,  999.0,  999.0,  999.0
